Time,TemperatureF,DewpointF,PressureIn,WindDirection,WindDirectionDegrees,WindSpeedMPH,WindSpeedGustMPH,Humidity,HourlyPrecipIn,Conditions,Clouds,dailyrainin,SoftwareType,DateUTC
2013-11-12 00:01:00,25.3,20.6,24.78,North,2,4.0,8.9,82,0.00,,,0.00,VWS V14.01,2013-11-12 05:01:00,
2013-11-12 00:02:00,25.3,20.6,24.78,North,6,0.0,7.8,82,0.00,,,0.00,VWS V14.01,2013-11-12 05:02:00,
2013-11-12 00:03:00,25.3,20.6,24.78,North,7,0.0,6.7,82,0.00,,,0.00,VWS V14.01,2013-11-12 05:03:00,
2013-11-12 00:07:00,25.2,20.7,24.78,NNE,16,0.0,5.6,83,0.00,,,0.00,VWS V14.01,2013-11-12 05:07:00,
2013-11-12 00:11:00,25.2,20.7,24.78,North,350,4.0,6.7,83,0.00,,,0.00,VWS V14.01,2013-11-12 05:11:00,
2013-11-12 00:16:00,25.0,20.6,24.78,North,4,0.0,8.9,83,0.00,,,0.00,VWS V14.01,2013-11-12 05:16:00,
2013-11-12 00:21:00,24.8,20.7,24.78,North,8,0.0,6.7,84,0.00,,,0.00,VWS V14.01,2013-11-12 05:21:00,
2013-11-12 00:25:00,24.8,20.7,24.73,North,3,0.0,5.6,84,0.00,,,0.00,VWS V14.01,2013-11-12 05:25:00,
2013-11-12 00:30:00,24.4,20.3,24.73,North,2,0.0,6.7,84,0.00,,,0.00,VWS V14.01,2013-11-12 05:30:00,
2013-11-12 00:36:00,24.4,20.3,24.73,NNE,18,4.7,7.8,84,0.00,,,0.00,VWS V14.01,2013-11-12 05:36:00,
2013-11-12 00:41:00,24.4,20.3,24.73,NNE,14,0.0,0.0,84,0.00,,,0.00,VWS V14.01,2013-11-12 05:41:00,
2013-11-12 00:46:00,24.3,20.1,24.73,North,5,0.0,5.6,84,0.00,,,0.00,VWS V14.01,2013-11-12 05:46:00,
2013-11-12 00:51:00,24.1,20.2,24.73,North,5,0.0,0.0,85,0.00,,,0.00,VWS V14.01,2013-11-12 05:51:00,
2013-11-12 00:57:00,23.9,20.1,24.78,North,5,0.0,0.0,85,0.00,,,0.00,VWS V14.01,2013-11-12 05:57:00,
2013-11-12 01:02:00,23.9,20.1,24.78,North,1,0.0,0.0,85,0.00,,,0.00,VWS V14.01,2013-11-12 06:02:00,
2013-11-12 01:07:00,23.9,20.1,24.78,North,8,4.0,7.8,85,0.00,,,0.00,VWS V14.01,2013-11-12 06:07:00,
2013-11-12 01:12:00,24.1,20.2,24.78,North,2,0.0,10.1,85,0.00,,,0.00,VWS V14.01,2013-11-12 06:12:00,
2013-11-12 01:18:00,24.4,20.6,24.78,North,9,5.4,12.3,85,0.00,,,0.00,VWS V14.01,2013-11-12 06:18:00,
2013-11-12 01:23:00,24.4,20.6,24.78,North,3,4.7,8.9,85,0.00,,,0.00,VWS V14.01,2013-11-12 06:23:00,
2013-11-12 01:28:00,24.4,20.6,24.78,North,353,5.4,10.1,85,0.00,,,0.00,VWS V14.01,2013-11-12 06:28:00,
2013-11-12 01:34:00,24.3,20.4,24.78,North,2,4.7,7.8,85,0.00,,,0.00,VWS V14.01,2013-11-12 06:34:00,
2013-11-12 01:39:00,24.3,20.4,24.78,North,5,4.7,8.9,85,0.00,,,0.00,VWS V14.01,2013-11-12 06:39:00,
2013-11-12 01:46:00,24.1,20.2,24.78,North,4,4.7,7.8,85,0.00,,,0.00,VWS V14.01,2013-11-12 06:46:00,
2013-11-12 01:51:00,23.9,20.3,24.78,NNE,12,0.0,8.9,86,0.00,,,0.00,VWS V14.01,2013-11-12 06:51:00,
2013-11-12 01:57:00,23.7,20.1,24.78,North,5,0.0,0.0,86,0.00,,,0.00,VWS V14.01,2013-11-12 06:57:00,
2013-11-12 02:03:00,23.5,20.0,24.78,North,357,0.0,0.0,86,0.00,,,0.00,VWS V14.01,2013-11-12 07:03:00,
2013-11-12 02:09:00,23.5,20.0,24.78,NNW,342,3.4,7.8,86,0.00,,,0.00,VWS V14.01,2013-11-12 07:09:00,
2013-11-12 02:14:00,23.5,20.0,24.78,NNW,345,0.0,7.8,86,0.00,,,0.00,VWS V14.01,2013-11-12 07:14:00,
2013-11-12 02:19:00,23.4,19.8,24.78,North,6,3.4,7.8,86,0.00,,,0.00,VWS V14.01,2013-11-12 07:19:00,
2013-11-12 02:24:00,23.4,19.8,24.78,North,2,4.7,8.9,86,0.00,,,0.00,VWS V14.01,2013-11-12 07:24:00,
2013-11-12 02:30:00,23.2,19.6,24.78,North,5,0.0,0.0,86,0.00,,,0.00,VWS V14.01,2013-11-12 07:30:00,
2013-11-12 02:36:00,23.2,19.6,24.78,North,7,0.0,6.7,86,0.00,,,0.00,VWS V14.01,2013-11-12 07:36:00,
2013-11-12 02:42:00,23.0,19.5,24.78,North,4,0.0,0.0,86,0.00,,,0.00,VWS V14.01,2013-11-12 07:42:00,
2013-11-12 02:47:00,22.8,19.5,24.78,North,4,0.0,0.0,87,0.00,,,0.00,VWS V14.01,2013-11-12 07:47:00,
2013-11-12 02:53:00,22.6,19.4,24.78,North,4,0.0,0.0,87,0.00,,,0.00,VWS V14.01,2013-11-12 07:53:00,
2013-11-12 02:59:00,22.5,18.9,24.78,North,4,0.0,0.0,86,0.00,,,0.00,VWS V14.01,2013-11-12 07:59:00,
2013-11-12 03:04:00,22.3,18.7,24.78,North,4,0.0,0.0,86,0.00,,,0.00,VWS V14.01,2013-11-12 08:04:00,
2013-11-12 03:10:00,22.3,19.0,26.44,North,4,0.0,0.0,87,0.00,,,0.00,VWS V14.01,2013-11-12 08:10:00,
2013-11-12 03:16:00,22.3,19.0,26.44,North,4,0.0,0.0,87,0.00,,,0.00,VWS V14.01,2013-11-12 08:16:00,
2013-11-12 03:21:00,22.3,19.0,26.44,North,4,0.0,0.0,87,0.00,,,0.00,VWS V14.01,2013-11-12 08:21:00,
2013-11-12 03:26:00,22.3,19.0,24.78,North,4,0.0,0.0,87,0.00,,,0.00,VWS V14.01,2013-11-12 08:26:00,
2013-11-12 03:31:00,22.3,19.0,24.78,North,4,0.0,0.0,87,0.00,,,0.00,VWS V14.01,2013-11-12 08:31:00,
2013-11-12 03:37:00,22.3,19.0,24.78,North,4,0.0,6.7,87,0.00,,,0.00,VWS V14.01,2013-11-12 08:37:00,
2013-11-12 03:42:00,22.3,19.0,24.64,North,357,3.4,7.8,87,0.00,,,0.00,VWS V14.01,2013-11-12 08:42:00,
2013-11-12 03:48:00,22.1,18.8,24.64,North,357,0.0,0.0,87,0.00,,,0.00,VWS V14.01,2013-11-12 08:48:00,
2013-11-12 03:53:00,22.1,18.8,24.64,North,357,0.0,7.8,87,0.00,,,0.00,VWS V14.01,2013-11-12 08:53:00,
2013-11-12 03:59:00,21.9,18.6,26.44,North,357,0.0,0.0,87,0.00,,,0.00,VWS V14.01,2013-11-12 08:59:00,
2013-11-12 04:04:00,21.9,18.6,26.44,North,357,0.0,0.0,87,0.00,,,0.00,VWS V14.01,2013-11-12 09:04:00,
2013-11-12 04:09:00,21.9,18.6,26.44,North,357,4.0,6.7,87,0.00,,,0.00,VWS V14.01,2013-11-12 09:09:00,
2013-11-12 04:14:00,21.9,18.6,24.73,North,357,0.0,0.0,87,0.00,,,0.00,VWS V14.01,2013-11-12 09:14:00,
2013-11-12 04:20:00,21.9,18.6,24.73,North,357,0.0,0.0,87,0.00,,,0.00,VWS V14.01,2013-11-12 09:20:00,
2013-11-12 04:25:00,21.9,18.6,24.73,North,357,0.0,0.0,87,0.00,,,0.00,VWS V14.01,2013-11-12 09:25:00,
2013-11-12 04:31:00,21.9,18.6,24.73,North,357,0.0,0.0,87,0.00,,,0.00,VWS V14.01,2013-11-12 09:31:00,
2013-11-12 04:37:00,21.9,18.6,24.73,North,357,0.0,0.0,87,0.00,,,0.00,VWS V14.01,2013-11-12 09:37:00,
2013-11-12 04:42:00,21.9,18.6,24.78,North,357,0.0,6.7,87,0.00,,,0.00,VWS V14.01,2013-11-12 09:42:00,
2013-11-12 04:47:00,21.9,18.6,24.78,North,11,0.0,0.0,87,0.00,,,0.00,VWS V14.01,2013-11-12 09:47:00,
2013-11-12 04:52:00,21.7,18.5,24.78,North,11,0.0,0.0,87,0.00,,,0.00,VWS V14.01,2013-11-12 09:52:00,
2013-11-12 04:57:00,21.7,18.5,24.78,North,11,0.0,0.0,87,0.00,,,0.00,VWS V14.01,2013-11-12 09:57:00,
2013-11-12 05:02:00,21.7,18.5,24.78,North,11,0.0,0.0,87,0.00,,,0.00,VWS V14.01,2013-11-12 10:02:00,
2013-11-12 05:07:00,21.7,18.7,24.78,North,9,0.0,0.0,88,0.00,,,0.00,VWS V14.01,2013-11-12 10:07:00,
2013-11-12 05:13:00,21.7,18.7,24.78,North,8,0.0,8.9,88,0.00,,,0.00,VWS V14.01,2013-11-12 10:13:00,
2013-11-12 05:19:00,21.9,18.9,24.78,North,10,0.0,5.6,88,0.00,,,0.00,VWS V14.01,2013-11-12 10:19:00,
2013-11-12 05:24:00,21.7,18.7,24.78,North,4,0.0,5.6,88,0.00,,,0.00,VWS V14.01,2013-11-12 10:24:00,
2013-11-12 05:30:00,21.7,18.7,24.78,North,7,0.0,0.0,88,0.00,,,0.00,VWS V14.01,2013-11-12 10:30:00,
2013-11-12 05:36:00,21.7,18.7,24.78,NNW,331,0.0,0.0,88,0.00,,,0.00,VWS V14.01,2013-11-12 10:36:00,
2013-11-12 05:41:00,21.7,18.7,26.67,North,1,0.0,8.9,88,0.00,,,0.00,VWS V14.01,2013-11-12 10:41:00,
2013-11-12 05:47:00,21.9,18.9,26.67,North,6,4.7,7.8,88,0.00,,,0.00,VWS V14.01,2013-11-12 10:47:00,
2013-11-12 05:52:00,21.9,18.9,26.67,NNE,14,0.0,7.8,88,0.00,,,0.00,VWS V14.01,2013-11-12 10:52:00,
2013-11-12 05:58:00,21.9,18.9,24.78,North,357,4.0,7.8,88,0.00,,,0.00,VWS V14.01,2013-11-12 10:58:00,
2013-11-12 06:04:00,21.9,18.9,24.78,North,7,4.7,7.8,88,0.00,,,0.00,VWS V14.01,2013-11-12 11:04:00,
2013-11-12 06:09:00,21.9,18.9,24.78,North,2,3.4,7.8,88,0.00,,,0.00,VWS V14.01,2013-11-12 11:09:00,
2013-11-12 06:14:00,21.7,18.7,24.78,NNW,341,0.0,0.0,88,0.00,,,0.00,VWS V14.01,2013-11-12 11:14:00,
2013-11-12 06:19:00,21.7,18.7,24.78,NNW,327,0.0,0.0,88,0.00,,,0.00,VWS V14.01,2013-11-12 11:19:00,
2013-11-12 06:25:00,21.7,18.7,24.78,NNW,329,0.0,0.0,88,0.00,,,0.00,VWS V14.01,2013-11-12 11:25:00,
2013-11-12 06:31:00,21.6,18.6,24.78,North,353,3.4,5.6,88,0.00,,,0.00,VWS V14.01,2013-11-12 11:31:00,
2013-11-12 06:36:00,21.6,18.6,24.78,North,357,4.0,6.7,88,0.00,,,0.00,VWS V14.01,2013-11-12 11:36:00,
2013-11-12 06:42:00,21.4,18.4,24.75,North,357,0.0,0.0,88,0.00,,,0.00,VWS V14.01,2013-11-12 11:42:00,
2013-11-12 06:47:00,21.4,18.4,24.75,North,357,0.0,0.0,88,0.00,,,0.00,VWS V14.01,2013-11-12 11:47:00,
2013-11-12 06:53:00,21.6,18.6,24.75,NNE,18,0.0,0.0,88,0.00,,,0.00,VWS V14.01,2013-11-12 11:53:00,
2013-11-12 06:58:00,21.4,18.4,24.78,North,7,0.0,0.0,88,0.00,,,0.00,VWS V14.01,2013-11-12 11:58:00,
2013-11-12 07:04:00,21.4,18.4,24.78,North,7,3.4,7.8,88,0.00,,,0.00,VWS V14.01,2013-11-12 12:04:00,
2013-11-12 07:09:00,21.6,18.6,24.78,NNE,29,0.0,6.7,88,0.00,,,0.00,VWS V14.01,2013-11-12 12:09:00,
2013-11-12 07:15:00,21.7,18.7,24.78,North,9,3.4,7.8,88,0.00,,,0.00,VWS V14.01,2013-11-12 12:15:00,
2013-11-12 07:20:00,22.1,19.1,24.78,North,10,8.7,14.5,88,0.00,,,0.00,VWS V14.01,2013-11-12 12:20:00,
2013-11-12 07:26:00,22.1,19.1,25.73,NE,34,4.7,10.1,88,0.00,,,0.00,VWS V14.01,2013-11-12 12:26:00,
2013-11-12 07:32:00,22.3,19.3,25.73,North,11,0.0,6.7,88,0.00,,,0.00,VWS V14.01,2013-11-12 12:32:00,
2013-11-12 07:38:00,22.3,19.3,25.73,North,6,0.0,0.0,88,0.00,,,0.00,VWS V14.01,2013-11-12 12:38:00,
2013-11-12 07:43:00,22.3,19.3,24.78,NNE,26,3.4,5.6,88,0.00,,,0.00,VWS V14.01,2013-11-12 12:43:00,
2013-11-12 07:49:00,22.3,19.3,24.78,NNE,15,3.4,7.8,88,0.00,,,0.00,VWS V14.01,2013-11-12 12:49:00,
2013-11-12 07:54:00,22.1,19.1,24.78,North,10,0.0,0.0,88,0.00,,,0.00,VWS V14.01,2013-11-12 12:54:00,
2013-11-12 08:00:00,22.1,19.1,26.67,North,10,0.0,0.0,88,0.00,,,0.00,VWS V14.01,2013-11-12 13:00:00,
2013-11-12 08:05:00,21.9,18.9,26.67,North,10,0.0,0.0,88,0.00,,,0.00,VWS V14.01,2013-11-12 13:05:00,
2013-11-12 08:10:00,22.1,19.1,24.78,North,10,0.0,0.0,88,0.00,,,0.00,VWS V14.01,2013-11-12 13:10:00,
2013-11-12 08:16:00,22.3,19.3,24.78,North,10,0.0,0.0,88,0.00,,,0.00,VWS V14.01,2013-11-12 13:16:00,
2013-11-12 08:21:00,22.3,19.3,24.78,North,10,0.0,0.0,88,0.00,,,0.00,VWS V14.01,2013-11-12 13:21:00,
2013-11-12 08:26:00,22.5,19.5,26.67,North,10,0.0,0.0,88,0.00,,,0.00,VWS V14.01,2013-11-12 13:26:00,
2013-11-12 08:32:00,22.8,20.1,26.67,North,10,0.0,0.0,89,0.00,,,0.00,VWS V14.01,2013-11-12 13:32:00,
2013-11-12 08:37:00,22.8,20.1,26.67,North,10,0.0,0.0,89,0.00,,,0.00,VWS V14.01,2013-11-12 13:37:00,
2013-11-12 08:42:00,23.4,20.3,24.78,North,2,0.0,8.9,88,0.00,,,0.00,VWS V14.01,2013-11-12 13:42:00,
2013-11-12 08:48:00,23.5,20.8,24.78,NNE,18,0.0,0.0,89,0.00,,,0.00,VWS V14.01,2013-11-12 13:48:00,
2013-11-12 08:53:00,23.9,21.1,24.78,North,3,3.4,5.6,89,0.00,,,0.00,VWS V14.01,2013-11-12 13:53:00,
2013-11-12 08:58:00,24.3,21.5,26.67,North,5,0.0,6.7,89,0.00,,,0.00,VWS V14.01,2013-11-12 13:58:00,
2013-11-12 09:03:00,24.4,21.7,26.67,North,357,0.0,0.0,89,0.00,,,0.00,VWS V14.01,2013-11-12 14:03:00,
2013-11-12 09:09:00,24.6,21.9,26.67,NNE,13,6.0,10.1,89,0.00,,,0.00,VWS V14.01,2013-11-12 14:09:00,
2013-11-12 09:14:00,24.8,22.0,24.78,North,7,7.4,12.3,89,0.00,,,0.00,VWS V14.01,2013-11-12 14:14:00,
2013-11-12 09:20:00,25.2,22.4,24.78,NE,44,6.0,10.1,89,0.00,,,0.00,VWS V14.01,2013-11-12 14:20:00,
2013-11-12 09:26:00,25.5,22.7,24.78,North,5,11.4,19.0,89,0.00,,,0.00,VWS V14.01,2013-11-12 14:26:00,
2013-11-12 09:31:00,25.7,22.9,24.78,NNE,28,8.1,13.4,89,0.00,,,0.00,VWS V14.01,2013-11-12 14:31:00,
2013-11-12 09:37:00,26.1,23.3,24.78,NNE,21,8.1,13.4,89,0.00,,,0.00,VWS V14.01,2013-11-12 14:37:00,
2013-11-12 09:42:00,26.6,23.8,24.78,North,6,5.4,16.8,89,0.00,,,0.00,VWS V14.01,2013-11-12 14:42:00,
2013-11-12 09:48:00,27.3,24.5,24.78,NE,35,8.7,20.1,89,0.00,,,0.00,VWS V14.01,2013-11-12 14:48:00,
2013-11-12 09:53:00,27.3,24.5,24.78,North,357,5.4,10.1,89,0.00,,,0.00,VWS V14.01,2013-11-12 14:53:00,
2013-11-12 09:58:00,27.1,24.1,24.78,NNE,16,4.0,12.3,88,0.00,,,0.00,VWS V14.01,2013-11-12 14:58:00,
2013-11-12 10:03:00,27.5,24.4,24.78,NE,34,6.0,10.1,88,0.00,,,0.00,VWS V14.01,2013-11-12 15:03:00,
2013-11-12 10:08:00,27.9,24.8,24.78,NNE,25,6.0,17.9,88,0.00,,,0.00,VWS V14.01,2013-11-12 15:08:00,
2013-11-12 10:13:00,28.8,25.7,24.78,North,4,11.4,19.0,88,0.00,,,0.00,VWS V14.01,2013-11-12 15:13:00,
2013-11-12 10:19:00,29.1,25.7,24.78,NNE,29,7.4,21.8,87,0.00,,,0.00,VWS V14.01,2013-11-12 15:19:00,
2013-11-12 10:25:00,30.0,26.6,24.78,North,2,5.4,13.4,87,0.00,,,0.00,VWS V14.01,2013-11-12 15:25:00,
2013-11-12 10:31:00,30.2,26.8,24.78,North,8,4.0,8.9,87,0.00,,,0.00,VWS V14.01,2013-11-12 15:31:00,
2013-11-12 10:36:00,30.4,26.7,24.78,North,0,4.0,7.8,86,0.00,,,0.00,VWS V14.01,2013-11-12 15:36:00,
2013-11-12 10:41:00,30.6,26.9,24.78,North,11,4.0,6.7,86,0.00,,,0.00,VWS V14.01,2013-11-12 15:41:00,
2013-11-12 10:47:00,31.1,27.4,24.78,NNE,31,4.7,8.9,86,0.00,,,0.00,VWS V14.01,2013-11-12 15:47:00,
2013-11-12 10:52:00,31.3,27.6,24.78,North,2,4.0,7.8,86,0.00,,,0.00,VWS V14.01,2013-11-12 15:52:00,
2013-11-12 10:57:00,31.3,27.6,24.78,NNW,340,4.0,12.3,86,0.00,,,0.00,VWS V14.01,2013-11-12 15:57:00,
2013-11-12 11:02:00,31.1,27.1,24.78,NNE,13,6.0,10.1,85,0.00,,,0.00,VWS V14.01,2013-11-12 16:02:00,
2013-11-12 11:08:00,31.5,27.2,24.78,North,0,4.7,14.5,84,0.00,,,0.00,VWS V14.01,2013-11-12 16:08:00,
2013-11-12 11:14:00,31.6,27.4,24.78,North,357,8.1,13.4,84,0.00,,,0.00,VWS V14.01,2013-11-12 16:14:00,
2013-11-12 11:19:00,31.8,27.3,24.78,North,6,4.0,8.9,83,0.00,,,0.00,VWS V14.01,2013-11-12 16:19:00,
2013-11-12 11:24:00,32.0,27.4,24.78,NNW,332,4.7,10.1,83,0.00,,,0.00,VWS V14.01,2013-11-12 16:24:00,
2013-11-12 11:30:00,31.6,26.8,24.78,North,8,4.0,10.1,82,0.00,,,0.00,VWS V14.01,2013-11-12 16:30:00,
2013-11-12 11:35:00,31.5,26.3,24.78,North,10,5.4,12.3,81,0.00,,,0.00,VWS V14.01,2013-11-12 16:35:00,
2013-11-12 11:41:00,31.8,27.0,24.78,North,357,4.0,10.1,82,0.00,,,0.00,VWS V14.01,2013-11-12 16:41:00,
2013-11-12 11:46:00,32.2,27.6,24.78,NW,316,0.0,0.0,83,0.00,,,0.00,VWS V14.01,2013-11-12 16:46:00,
2013-11-12 11:51:00,32.2,27.9,24.78,North,6,3.4,6.7,84,0.00,,,0.00,VWS V14.01,2013-11-12 16:51:00,
2013-11-12 11:57:00,32.5,28.2,24.78,NW,305,3.4,6.7,84,0.00,,,0.00,VWS V14.01,2013-11-12 16:57:00,
2013-11-12 12:02:00,32.5,28.2,24.78,NW,310,0.0,0.0,84,0.00,,,0.00,VWS V14.01,2013-11-12 17:02:00,
2013-11-12 12:07:00,32.7,28.7,24.78,NW,310,0.0,0.0,85,0.00,,,0.00,VWS V14.01,2013-11-12 17:07:00,
2013-11-12 12:12:00,32.9,28.9,24.78,NW,322,0.0,0.0,85,0.00,,,0.00,VWS V14.01,2013-11-12 17:12:00,
2013-11-12 12:18:00,32.9,28.9,24.78,NW,306,0.0,0.0,85,0.00,,,0.00,VWS V14.01,2013-11-12 17:18:00,
2013-11-12 12:23:00,33.1,29.4,24.78,NW,310,3.4,5.6,86,0.00,,,0.00,VWS V14.01,2013-11-12 17:23:00,
2013-11-12 12:29:00,33.1,29.4,24.78,North,4,4.0,6.7,86,0.00,,,0.00,VWS V14.01,2013-11-12 17:29:00,
2013-11-12 12:34:00,33.3,29.5,24.78,North,0,6.0,13.4,86,0.00,,,0.00,VWS V14.01,2013-11-12 17:34:00,
2013-11-12 12:39:00,33.3,29.5,24.78,North,4,4.0,10.1,86,0.00,,,0.00,VWS V14.01,2013-11-12 17:39:00,
2013-11-12 12:44:00,33.3,29.5,24.78,NW,312,0.0,7.8,86,0.00,,,0.00,VWS V14.01,2013-11-12 17:44:00,
2013-11-12 12:49:00,33.1,29.4,24.78,NW,310,4.0,7.8,86,0.00,,,0.00,VWS V14.01,2013-11-12 17:49:00,
2013-11-12 12:56:00,33.6,29.9,24.78,NW,310,4.0,6.7,86,0.00,,,0.00,VWS V14.01,2013-11-12 17:56:00,
2013-11-12 13:01:00,33.8,30.1,24.78,WNW,297,4.0,8.9,86,0.00,,,0.00,VWS V14.01,2013-11-12 18:01:00,
2013-11-12 13:07:00,33.8,30.1,24.78,NW,307,4.0,6.7,86,0.00,,,0.00,VWS V14.01,2013-11-12 18:07:00,
2013-11-12 13:12:00,34.2,30.4,24.78,NW,325,0.0,0.0,86,0.00,,,0.00,VWS V14.01,2013-11-12 18:12:00,
2013-11-12 13:17:00,34.3,30.9,24.78,NW,325,0.0,0.0,87,0.00,,,0.00,VWS V14.01,2013-11-12 18:17:00,
2013-11-12 13:23:00,34.3,30.9,24.78,WNW,292,0.0,0.0,87,0.00,,,0.00,VWS V14.01,2013-11-12 18:23:00,
2013-11-12 13:28:00,34.3,30.9,24.78,WNW,301,0.0,0.0,87,0.00,,,0.00,VWS V14.01,2013-11-12 18:28:00,
2013-11-12 13:33:00,34.3,30.9,24.78,North,0,0.0,6.7,87,0.00,,,0.00,VWS V14.01,2013-11-12 18:33:00,
2013-11-12 13:38:00,34.3,30.9,24.78,WNW,298,5.4,8.9,87,0.00,,,0.00,VWS V14.01,2013-11-12 18:38:00,
2013-11-12 13:43:00,34.9,31.4,24.78,WNW,300,0.0,7.8,87,0.00,,,0.00,VWS V14.01,2013-11-12 18:43:00,
2013-11-12 13:49:00,35.4,31.9,24.78,WNW,290,4.7,7.8,87,0.00,,,0.00,VWS V14.01,2013-11-12 18:49:00,
2013-11-12 13:54:00,35.1,31.9,24.78,NW,319,6.0,10.1,88,0.00,,,0.00,VWS V14.01,2013-11-12 18:54:00,
2013-11-12 14:01:00,35.1,31.6,24.78,NW,307,0.0,0.0,87,0.00,,,0.00,VWS V14.01,2013-11-12 19:01:00,
2013-11-12 14:06:00,36.3,32.8,24.78,WNW,288,6.0,13.4,87,0.00,,,0.00,VWS V14.01,2013-11-12 19:06:00,
2013-11-12 14:12:00,37.0,33.5,24.78,North,353,0.0,13.4,87,0.00,,,0.00,VWS V14.01,2013-11-12 19:12:00,
2013-11-12 14:18:00,36.7,33.2,24.78,SW,220,0.0,0.0,87,0.00,,,0.00,VWS V14.01,2013-11-12 19:18:00,
2013-11-12 14:24:00,35.6,32.1,24.78,WNW,292,5.4,8.9,87,0.00,,,0.00,VWS V14.01,2013-11-12 19:24:00,
2013-11-12 14:29:00,35.4,31.9,24.78,NNW,330,0.0,7.8,87,0.00,,,0.00,VWS V14.01,2013-11-12 19:29:00,
2013-11-12 14:36:00,34.9,31.1,24.78,WNW,293,8.1,15.7,86,0.00,,,0.00,VWS V14.01,2013-11-12 19:36:00,
2013-11-12 14:45:00,34.7,30.4,24.75,NW,307,4.7,7.8,84,0.00,,,0.00,VWS V14.01,2013-11-12 19:45:00,
2013-11-12 14:51:00,34.0,28.8,24.75,SSW,202,4.0,14.5,81,0.00,,,0.00,VWS V14.01,2013-11-12 19:51:00,
2013-11-12 14:56:00,33.6,27.5,24.78,NNW,344,5.4,12.3,78,0.00,,,0.00,VWS V14.01,2013-11-12 19:56:00,
2013-11-12 15:02:00,33.6,27.2,24.78,WNW,301,4.0,13.4,77,0.00,,,0.00,VWS V14.01,2013-11-12 20:02:00,
2013-11-12 15:07:00,33.8,27.7,24.78,WNW,302,5.4,10.1,78,0.00,,,0.00,VWS V14.01,2013-11-12 20:07:00,
2013-11-12 15:13:00,34.0,27.9,24.78,WNW,303,6.0,10.1,78,0.00,,,0.00,VWS V14.01,2013-11-12 20:13:00,
2013-11-12 15:18:00,34.2,27.7,24.78,NW,312,6.0,14.5,77,0.00,,,0.00,VWS V14.01,2013-11-12 20:18:00,
2013-11-12 15:24:00,34.0,27.9,24.78,NW,306,4.7,15.7,78,0.00,,,0.00,VWS V14.01,2013-11-12 20:24:00,
2013-11-12 15:30:00,33.8,28.0,24.78,WNW,300,6.0,15.7,79,0.00,,,0.00,VWS V14.01,2013-11-12 20:30:00,
2013-11-12 15:35:00,34.0,28.2,24.78,WNW,291,8.7,14.5,79,0.00,,,0.00,VWS V14.01,2013-11-12 20:35:00,
2013-11-12 15:41:00,34.2,28.0,24.78,NNW,327,6.0,12.3,78,0.00,,,0.00,VWS V14.01,2013-11-12 20:41:00,
2013-11-12 15:47:00,33.8,27.0,24.78,NW,311,7.4,13.4,76,0.00,,,0.00,VWS V14.01,2013-11-12 20:47:00,
2013-11-12 15:52:00,33.4,26.7,24.78,NNW,336,5.4,14.5,76,0.00,,,0.00,VWS V14.01,2013-11-12 20:52:00,
2013-11-12 15:58:00,32.5,24.9,24.78,NW,320,5.4,12.3,73,0.00,,,0.00,VWS V14.01,2013-11-12 20:58:00,
2013-11-12 16:03:00,32.5,24.5,24.78,NW,317,4.7,10.1,72,0.00,,,0.00,VWS V14.01,2013-11-12 21:03:00,
2013-11-12 16:09:00,32.0,23.7,24.78,North,353,6.0,10.1,71,0.00,,,0.00,VWS V14.01,2013-11-12 21:09:00,
2013-11-12 16:15:00,31.6,23.3,24.78,NW,307,6.0,14.5,71,0.00,,,0.00,VWS V14.01,2013-11-12 21:15:00,
2013-11-12 16:20:00,31.3,23.3,24.78,WNW,296,5.4,12.3,72,0.00,,,0.00,VWS V14.01,2013-11-12 21:20:00,
2013-11-12 16:26:00,31.5,23.8,24.78,NW,310,4.0,14.5,73,0.00,,,0.00,VWS V14.01,2013-11-12 21:26:00,
2013-11-12 16:31:00,31.1,23.8,24.78,WNW,301,4.0,13.4,74,0.00,,,0.00,VWS V14.01,2013-11-12 21:31:00,
2013-11-12 16:37:00,30.7,23.5,24.78,WNW,292,8.1,13.4,74,0.00,,,0.00,VWS V14.01,2013-11-12 21:37:00,
2013-11-12 16:43:00,30.4,23.4,24.78,WNW,293,6.0,14.5,75,0.00,,,0.00,VWS V14.01,2013-11-12 21:43:00,
2013-11-12 16:48:00,30.2,23.2,24.78,NW,305,6.0,13.4,75,0.00,,,0.00,VWS V14.01,2013-11-12 21:48:00,
2013-11-12 16:54:00,29.8,22.9,24.78,West,277,6.0,13.4,75,0.00,,,0.00,VWS V14.01,2013-11-12 21:54:00,
2013-11-12 16:59:00,29.7,22.7,24.78,WNW,294,6.0,13.4,75,0.00,,,0.00,VWS V14.01,2013-11-12 21:59:00,
2013-11-12 17:05:00,29.3,22.7,24.78,WNW,291,5.4,14.5,76,0.00,,,0.00,VWS V14.01,2013-11-12 22:05:00,
2013-11-12 17:10:00,29.1,22.5,24.78,WNW,293,0.0,8.9,76,0.00,,,0.00,VWS V14.01,2013-11-12 22:10:00,
2013-11-12 17:16:00,29.1,22.8,24.78,WNW,286,7.4,14.5,77,0.00,,,0.00,VWS V14.01,2013-11-12 22:16:00,
2013-11-12 17:21:00,28.9,22.6,24.78,NW,314,5.4,8.9,77,0.00,,,0.00,VWS V14.01,2013-11-12 22:21:00,
2013-11-12 17:26:00,28.9,23.0,24.78,WNW,298,7.4,13.4,78,0.00,,,0.00,VWS V14.01,2013-11-12 22:26:00,
2013-11-12 17:31:00,28.8,22.8,24.78,WNW,292,0.0,12.3,78,0.00,,,0.00,VWS V14.01,2013-11-12 22:31:00,
2013-11-12 17:37:00,28.4,22.4,24.78,WNW,291,0.0,8.9,78,0.00,,,0.00,VWS V14.01,2013-11-12 22:37:00,
2013-11-12 17:43:00,28.0,22.4,24.78,WNW,290,0.0,0.0,79,0.00,,,0.00,VWS V14.01,2013-11-12 22:43:00,
2013-11-12 17:48:00,27.9,22.2,24.78,WNW,294,0.0,0.0,79,0.00,,,0.00,VWS V14.01,2013-11-12 22:48:00,
2013-11-12 17:53:00,27.7,22.0,24.78,WNW,294,0.0,5.6,79,0.00,,,0.00,VWS V14.01,2013-11-12 22:53:00,
2013-11-12 17:58:00,27.5,21.9,24.78,WNW,294,0.0,0.0,79,0.00,,,0.00,VWS V14.01,2013-11-12 22:58:00,
2013-11-12 18:04:00,27.3,21.7,24.78,WNW,292,4.0,6.7,79,0.00,,,0.00,VWS V14.01,2013-11-12 23:04:00,
2013-11-12 18:09:00,27.1,21.8,24.78,WNW,292,0.0,0.0,80,0.00,,,0.00,VWS V14.01,2013-11-12 23:09:00,
2013-11-12 18:15:00,27.0,21.6,24.78,WNW,292,0.0,0.0,80,0.00,,,0.00,VWS V14.01,2013-11-12 23:15:00,
2013-11-12 18:21:00,27.3,22.0,24.78,WNW,292,0.0,0.0,80,0.00,,,0.00,VWS V14.01,2013-11-12 23:21:00,
2013-11-12 18:26:00,27.3,22.0,24.78,WNW,292,0.0,0.0,80,0.00,,,0.00,VWS V14.01,2013-11-12 23:26:00,
2013-11-12 18:31:00,27.5,22.1,24.78,WNW,292,0.0,0.0,80,0.00,,,0.00,VWS V14.01,2013-11-12 23:31:00,
2013-11-12 18:36:00,27.3,22.3,24.78,WNW,292,0.0,0.0,81,0.00,,,0.00,VWS V14.01,2013-11-12 23:36:00,
2013-11-12 18:41:00,27.3,22.3,24.78,WNW,292,0.0,0.0,81,0.00,,,0.00,VWS V14.01,2013-11-12 23:41:00,
2013-11-12 18:46:00,27.3,22.3,24.78,WNW,292,0.0,0.0,81,0.00,,,0.00,VWS V14.01,2013-11-12 23:46:00,
2013-11-12 18:52:00,27.3,22.3,24.78,WNW,292,0.0,0.0,81,0.00,,,0.00,VWS V14.01,2013-11-12 23:52:00,
2013-11-12 18:57:00,27.3,22.3,24.78,WNW,292,0.0,0.0,81,0.00,,,0.00,VWS V14.01,2013-11-12 23:57:00,
2013-11-12 19:02:00,27.1,22.4,24.78,WNW,292,0.0,0.0,82,0.00,,,0.00,VWS V14.01,2013-11-13 00:02:00,
2013-11-12 19:08:00,27.1,22.4,24.78,WNW,292,0.0,0.0,82,0.00,,,0.00,VWS V14.01,2013-11-13 00:08:00,
2013-11-12 19:14:00,27.3,22.6,24.78,WNW,292,0.0,0.0,82,0.00,,,0.00,VWS V14.01,2013-11-13 00:14:00,
2013-11-12 19:19:00,27.3,22.6,24.78,WNW,292,0.0,0.0,82,0.00,,,0.00,VWS V14.01,2013-11-13 00:19:00,
2013-11-12 19:24:00,27.3,22.6,24.78,WNW,292,0.0,0.0,82,0.00,,,0.00,VWS V14.01,2013-11-13 00:24:00,
2013-11-12 19:29:00,27.3,22.9,24.78,WNW,292,0.0,0.0,83,0.00,,,0.00,VWS V14.01,2013-11-13 00:29:00,
2013-11-12 19:34:00,27.3,22.9,24.78,WNW,292,0.0,0.0,83,0.00,,,0.00,VWS V14.01,2013-11-13 00:34:00,
2013-11-12 19:40:00,27.1,22.7,24.78,WNW,292,0.0,0.0,83,0.00,,,0.00,VWS V14.01,2013-11-13 00:40:00,
2013-11-12 19:46:00,26.8,22.3,24.78,WNW,292,0.0,0.0,83,0.00,,,0.00,VWS V14.01,2013-11-13 00:46:00,
2013-11-12 19:52:00,26.8,22.3,24.78,WNW,292,0.0,0.0,83,0.00,,,0.00,VWS V14.01,2013-11-13 00:52:00,
2013-11-12 19:57:00,26.6,22.4,24.78,WNW,292,0.0,0.0,84,0.00,,,0.00,VWS V14.01,2013-11-13 00:57:00,
2013-11-12 20:03:00,26.2,22.1,24.78,WNW,292,0.0,0.0,84,0.00,,,0.00,VWS V14.01,2013-11-13 01:03:00,
2013-11-12 20:08:00,26.1,21.9,24.78,WNW,292,0.0,0.0,84,0.00,,,0.00,VWS V14.01,2013-11-13 01:08:00,
2013-11-12 20:14:00,25.9,21.7,24.78,WNW,292,0.0,0.0,84,0.00,,,0.00,VWS V14.01,2013-11-13 01:14:00,
2013-11-12 20:19:00,25.9,21.7,24.78,WNW,292,0.0,0.0,84,0.00,,,0.00,VWS V14.01,2013-11-13 01:19:00,
2013-11-12 20:26:00,25.7,21.5,24.78,WNW,292,0.0,0.0,84,0.00,,,0.00,VWS V14.01,2013-11-13 01:26:00,
2013-11-12 20:32:00,25.5,21.4,24.78,WNW,292,0.0,0.0,84,0.00,,,0.00,VWS V14.01,2013-11-13 01:32:00,
2013-11-12 20:38:00,25.3,21.2,24.78,WNW,292,0.0,0.0,84,0.00,,,0.00,VWS V14.01,2013-11-13 01:38:00,
2013-11-12 20:43:00,25.3,21.2,24.78,WNW,292,0.0,0.0,84,0.00,,,0.00,VWS V14.01,2013-11-13 01:43:00,
2013-11-12 20:49:00,25.2,21.0,24.78,WNW,292,0.0,0.0,84,0.00,,,0.00,VWS V14.01,2013-11-13 01:49:00,
2013-11-12 20:56:00,25.2,21.0,24.78,WNW,292,0.0,0.0,84,0.00,,,0.00,VWS V14.01,2013-11-13 01:56:00,
2013-11-12 21:02:00,25.0,20.8,24.78,WNW,292,0.0,0.0,84,0.00,,,0.00,VWS V14.01,2013-11-13 02:02:00,
2013-11-12 21:07:00,25.0,20.8,24.78,WNW,292,0.0,0.0,84,0.00,,,0.00,VWS V14.01,2013-11-13 02:07:00,
2013-11-12 21:13:00,24.6,20.8,24.78,WNW,292,0.0,0.0,85,0.00,,,0.00,VWS V14.01,2013-11-13 02:13:00,
2013-11-12 21:18:00,24.3,20.4,24.78,WNW,292,0.0,0.0,85,0.00,,,0.00,VWS V14.01,2013-11-13 02:18:00,
2013-11-12 21:24:00,24.1,20.2,24.78,WNW,292,0.0,0.0,85,0.00,,,0.00,VWS V14.01,2013-11-13 02:24:00,
2013-11-12 21:31:00,23.9,20.1,24.78,WNW,292,0.0,0.0,85,0.00,,,0.00,VWS V14.01,2013-11-13 02:31:00,
2013-11-12 21:36:00,23.7,19.9,24.78,WNW,292,0.0,0.0,85,0.00,,,0.00,VWS V14.01,2013-11-13 02:36:00,
2013-11-12 21:41:00,23.7,19.9,24.78,WNW,292,0.0,0.0,85,0.00,,,0.00,VWS V14.01,2013-11-13 02:41:00,
2013-11-12 21:47:00,23.5,19.7,24.78,WNW,292,0.0,0.0,85,0.00,,,0.00,VWS V14.01,2013-11-13 02:47:00,
2013-11-12 21:52:00,23.5,19.7,24.78,WNW,292,0.0,0.0,85,0.00,,,0.00,VWS V14.01,2013-11-13 02:52:00,
2013-11-12 21:58:00,23.7,19.9,24.78,WNW,292,0.0,0.0,85,0.00,,,0.00,VWS V14.01,2013-11-13 02:58:00,
2013-11-12 22:03:00,23.4,19.5,24.78,WNW,292,0.0,0.0,85,0.00,,,0.00,VWS V14.01,2013-11-13 03:03:00,
2013-11-12 22:09:00,23.4,19.5,24.78,WNW,292,0.0,0.0,85,0.00,,,0.00,VWS V14.01,2013-11-13 03:09:00,
2013-11-12 22:15:00,23.5,19.7,25.73,WNW,292,0.0,0.0,85,0.00,,,0.00,VWS V14.01,2013-11-13 03:15:00,
2013-11-12 22:21:00,23.5,19.7,25.73,WNW,292,0.0,0.0,85,0.00,,,0.00,VWS V14.01,2013-11-13 03:21:00,
2013-11-12 22:27:00,23.5,20.0,26.67,WNW,292,0.0,0.0,86,0.00,,,0.00,VWS V14.01,2013-11-13 03:27:00,
2013-11-12 22:32:00,23.5,20.0,26.67,WNW,292,0.0,0.0,86,0.00,,,0.00,VWS V14.01,2013-11-13 03:32:00,
2013-11-12 22:37:00,23.5,20.0,26.67,WNW,292,0.0,0.0,86,0.00,,,0.00,VWS V14.01,2013-11-13 03:37:00,
2013-11-12 22:42:00,23.5,20.0,24.55,WNW,292,0.0,0.0,86,0.00,,,0.00,VWS V14.01,2013-11-13 03:42:00,
2013-11-12 22:48:00,23.5,20.0,24.55,WNW,292,0.0,0.0,86,0.00,,,0.00,VWS V14.01,2013-11-13 03:48:00,
2013-11-12 22:54:00,23.2,19.6,24.55,WNW,292,0.0,0.0,86,0.00,,,0.00,VWS V14.01,2013-11-13 03:54:00,
2013-11-12 22:59:00,23.0,19.5,24.78,WNW,292,0.0,0.0,86,0.00,,,0.00,VWS V14.01,2013-11-13 03:59:00,
2013-11-12 23:06:00,22.8,19.3,24.78,WNW,292,0.0,0.0,86,0.00,,,0.00,VWS V14.01,2013-11-13 04:06:00,
2013-11-12 23:12:00,22.8,19.3,24.78,WNW,292,0.0,0.0,86,0.00,,,0.00,VWS V14.01,2013-11-13 04:12:00,
2013-11-12 23:18:00,22.8,19.3,24.78,WNW,292,0.0,0.0,86,0.00,,,0.00,VWS V14.01,2013-11-13 04:18:00,
2013-11-12 23:24:00,23.0,19.5,24.78,WNW,292,0.0,0.0,86,0.00,,,0.00,VWS V14.01,2013-11-13 04:24:00,
2013-11-12 23:29:00,23.0,19.5,26.67,WNW,292,0.0,0.0,86,0.00,,,0.00,VWS V14.01,2013-11-13 04:29:00,
2013-11-12 23:34:00,23.0,19.5,26.67,WNW,292,0.0,0.0,86,0.00,,,0.00,VWS V14.01,2013-11-13 04:34:00,
2013-11-12 23:39:00,23.0,19.7,26.67,SW,226,0.0,0.0,87,0.00,,,0.00,VWS V14.01,2013-11-13 04:39:00,
2013-11-12 23:44:00,23.4,19.8,24.78,SW,226,0.0,0.0,86,0.00,,,0.00,VWS V14.01,2013-11-13 04:44:00,
2013-11-12 23:51:00,24.1,20.8,24.78,SW,226,0.0,0.0,87,0.00,,,0.00,VWS V14.01,2013-11-13 04:51:00,
2013-11-12 23:57:00,24.4,21.1,24.78,SW,226,0.0,0.0,87,0.00,,,0.00,VWS V14.01,2013-11-13 04:57:00,